DW5678 Kavala GR current weather conditions

sailwx.info

Wind from 231

Air temperature 18.9° C
Dewpoint 12.8° C

Last reported at 2015-May-30 21:45 UTC.
Time now 2015-May-30 22:40 UTC

Location: N 40°56' E 024°24'.
View on Google Maps.

See reports from other nearby stations

  
Tides and Currents Weather Stations Pressure Air Temp Water Temp Dewpoint Dewpoint Depression Visibility Wind Speed Wind Dir Waves Ship Positions
date/time (UTC)wind fromknots sea level pressurealtimeterstation pressurevisibilityair tempwater tempwave heightnotes
2015-May-30 21:45 231 18.9
2015-May-30 21:30 231 18.9
2015-May-30 21:15 231 19.4
2015-May-30 21:00 231 19.4
2015-May-30 20:45 229 19.4
2015-May-30 20:30 229 19.4
2015-May-30 20:15 229 19.4
2015-May-30 20:00 229 19.4
2015-May-30 19:45 229 19.4
2015-May-30 19:30 229 19.4
2015-May-30 19:15 229 20.0
2015-May-30 19:00 229 20.0
2015-May-30 18:45 229 0 gusting 2 20.0
2015-May-30 18:30 150 0 gusting 2 20.0
2015-May-30 18:15 213 20.0
2015-May-30 18:00 225 0 gusting 2 20.6
2015-May-30 17:45 232 0 gusting 2 20.6
2015-May-30 17:30 215 20.6
2015-May-30 17:15 218 20.6
2015-May-30 17:00 197 0 gusting 4 20.6
2015-May-30 16:45 232 21.1
2015-May-30 16:30 210 0 gusting 2 21.1
2015-May-30 16:15 234 0 gusting 6 21.1
2015-May-30 16:00 246 0 gusting 7 21.7
2015-May-30 15:45 234 1 gusting 6 21.7
2015-May-30 15:30 173 2 gusting 6 21.7
2015-May-30 15:15 219 3 gusting 6 21.7
2015-May-30 15:00 204 3 gusting 7 21.7
2015-May-30 14:45 242 4 gusting 7 21.7
2015-May-30 14:30 216 4 gusting 8 21.7
2015-May-30 14:15 228 3 gusting 10 21.7
2015-May-30 14:00 226 3 gusting 6 21.7
2015-May-30 13:45 225 4 gusting 10 21.7
2015-May-30 13:30 207 4 gusting 8 21.7
2015-May-30 13:15 214 4 gusting 6 21.7
2015-May-30 13:00 229 2 gusting 6 21.7
2015-May-30 12:45 208 4 gusting 7 21.7
2015-May-30 12:30 198 4 gusting 6 21.7
2015-May-30 12:15 216 2 gusting 6 22.2
2015-May-30 12:00 201 0 gusting 6 22.2
2015-May-30 11:45 215 3 gusting 6 22.2
2015-May-30 11:30 204 2 gusting 7 22.2
2015-May-30 11:15 225 2 gusting 6 21.7
2015-May-30 11:00 211 1 gusting 4 22.2
2015-May-30 10:45 214 2 gusting 6 22.2
2015-May-30 10:30 216 0 gusting 5 22.2
2015-May-30 10:15 204 2 gusting 6 21.7
2015-May-30 10:00 217 1 gusting 6 21.1
2015-May-30 09:45 158 1 gusting 6 21.1
2015-May-30 09:30 123 1 gusting 4 21.1
2015-May-30 09:15 227 0 gusting 4 21.1
2015-May-30 09:00 187 1 gusting 5 21.1
2015-May-30 08:45 216 1 gusting 5 21.1
2015-May-30 08:30 206 1 gusting 6 21.7
2015-May-30 08:15 234 1 gusting 5 21.1
2015-May-30 08:00 179 1 gusting 6 21.1
2015-May-30 07:45 272 1 gusting 6 20.6
2015-May-30 07:30 255 1 gusting 7 20.0
2015-May-30 07:15 240 2 gusting 5 20.0
2015-May-30 07:00 264 0 gusting 5 20.0
2015-May-30 06:45 269 1 gusting 6 19.4
2015-May-30 06:30 265 1 gusting 5 20.0
2015-May-30 06:15 281 0 gusting 2 19.4
2015-May-30 06:00 247 0 gusting 4 18.9
2015-May-30 05:45 229 0 gusting 2 18.9
2015-May-30 05:30 032 0 gusting 2 18.3
2015-May-30 05:15 134 0 gusting 6 18.3
2015-May-30 05:00 038 17.2
2015-May-30 04:45 214 17.2
2015-May-30 04:30 214 16.7
2015-May-30 04:15 214 16.1
2015-May-30 04:00 214 15.6
2015-May-30 03:45 214 15.6
2015-May-30 03:30 214 15.6
2015-May-30 03:15 214 15.6
2015-May-30 03:00 214 15.6
2015-May-30 02:45 214 15.6
2015-May-30 02:30 214 15.6
2015-May-30 02:15 214 15.6
2015-May-30 02:00 214 16.1
2015-May-30 01:45 329 16.1
2015-May-30 01:30 011 15.6
2015-May-30 01:15 011 15.6
2015-May-30 01:00 005 15.6
2015-May-30 00:45 005 15.6
2015-May-30 00:30 005 16.1
2015-May-30 00:15 005 16.1
2015-May-30 00:00 005 16.1
2015-May-29 23:45 009 16.1
2015-May-29 23:30 009 16.1
2015-May-29 23:15 009 16.1
2015-May-29 23:00 009 16.7
2015-May-29 22:45 009 16.7
2015-May-29 22:30 011 16.7
2015-May-29 22:15 011 16.7
2015-May-29 22:00 011 16.7
2015-May-29 21:45 011 16.7
2015-May-29 21:30 011 16.7
2015-May-29 21:15 011 17.2
2015-May-29 21:00 012 17.2
2015-May-29 20:45 017 17.2
2015-May-29 20:30 017 17.2
2015-May-29 20:15 026 17.2
2015-May-29 20:00 030 17.2
2015-May-29 19:45 030 17.2
2015-May-29 19:30 031 0 gusting 2 17.2
2015-May-29 19:15 030 0 gusting 2 17.2
2015-May-29 19:00 038 0 gusting 1 17.2
2015-May-29 18:45 038 0 gusting 2 17.2
2015-May-29 18:30 059 17.8
2015-May-29 18:15 038 17.8
2015-May-29 18:00 217 0 gusting 2 18.3
2015-May-29 17:45 209 1 gusting 2 18.3
2015-May-29 17:30 208 0 gusting 2 18.3
2015-May-29 17:15 211 0 gusting 2 18.3
2015-May-29 17:00 161 18.3
2015-May-29 16:45 157 0 gusting 2 18.9
2015-May-29 16:30 165 0 gusting 2 18.9
2015-May-29 16:15 219 19.4
2015-May-29 16:00 200 0 gusting 4 19.4
2015-May-29 15:45 202 0 gusting 5 18.9
2015-May-29 15:30 239 0 gusting 4 19.4
2015-May-29 15:15 151 1 gusting 4 19.4
2015-May-29 15:00 228 1 gusting 6 20.0
2015-May-29 14:45 200 1 gusting 4 20.0
2015-May-29 14:30 225 0 gusting 2 20.0
2015-May-29 14:15 204 20.6
2015-May-29 14:00 197 0 gusting 4 19.4
2015-May-29 13:45 230 1 gusting 5 19.4
2015-May-29 13:30 203 0 gusting 4 19.4
2015-May-29 13:15 255 1 gusting 2 19.4
2015-May-29 13:00 230 2 gusting 4 20.0
2015-May-29 12:45 204 0 gusting 5 19.4
2015-May-29 12:30 143 0 gusting 4 19.4
2015-May-29 12:15 223 1 gusting 4 19.4
2015-May-29 12:00 211 0 gusting 4 19.4
2015-May-29 11:45 220 2 gusting 5 19.4
2015-May-29 11:30 190 19.4
2015-May-29 11:15 117 1 gusting 5 20.0
2015-May-29 11:00 217 0 gusting 6 20.6
2015-May-29 10:30 272 1 gusting 5 18.9
2015-May-29 10:15 234 1 gusting 5 18.9
2015-May-29 09:45 115 0 gusting 2 18.3
2015-May-29 09:30 347 17.8
2015-May-29 09:15 298 0 gusting 2 17.2
2015-May-29 09:00 330 17.2
2015-May-29 08:45 265 0 gusting 2 17.2
2015-May-29 08:15 231 1 gusting 5 16.7
2015-May-29 08:00 280 2 gusting 6 16.7
2015-May-29 07:45 073 0 gusting 5 16.7
2015-May-29 07:30 16.1
2015-May-29 07:15 285 1 gusting 6 15.6
2015-May-29 07:00 327 1 gusting 8 15.6
2015-May-29 06:45 278 2 gusting 8 15.0
2015-May-29 06:30 339 1 gusting 7 15.0
2015-May-29 06:15 294 1 gusting 6 14.4
2015-May-29 06:00 295 1 gusting 10 14.4
2015-May-29 05:45 355 2 gusting 10 14.4
2015-May-29 05:30 296 2 gusting 10 14.4
2015-May-29 05:15 310 2 gusting 10 14.4
2015-May-29 05:00 012 2 gusting 8 14.4
2015-May-29 04:45 14.4
2015-May-29 04:30 130 2 gusting 6 14.4
2015-May-29 04:15 331 2 gusting 7 14.4
2015-May-29 04:00 136 2 gusting 10 14.4
2015-May-29 03:45 069 2 gusting 10 14.4
2015-May-29 03:30 329 1 gusting 7 14.4
2015-May-29 03:15 141 1 gusting 6 14.4
2015-May-29 03:00 265 1 gusting 5 14.4
2015-May-29 02:45 225 0 gusting 5 14.4
2015-May-29 02:30 330 0 gusting 6 14.4
2015-May-29 02:15 212 0 gusting 5 14.4
2015-May-29 02:00 025 0 gusting 4 14.4
2015-May-29 01:45 303 1 gusting 4 13.9
2015-May-29 01:30 114 14.4
2015-May-29 01:15 114 14.4
2015-May-29 01:00 092 14.4
2015-May-29 00:45 076 14.4
2015-May-29 00:30 117 1 gusting 2 14.4
2015-May-29 00:15 009 0 gusting 5 13.9
2015-May-29 00:00 192 0 gusting 2 13.9
2015-May-28 23:45 216 14.4
2015-May-28 23:30 158 1 gusting 6 14.4
2015-May-28 23:15 125 0 gusting 2 14.4
2015-May-28 23:00 14.4
2015-May-28 22:45 037 0 gusting 5 13.9
2015-May-28 22:30 321 0 gusting 7 13.9
2015-May-28 22:15 350 1 gusting 8 13.9
2015-May-28 22:00 076 0 gusting 10 13.9